"Pseudo-MPEC" for A10SuBN

Created 2023 Mar 26 6:22:02 UT using Find_Orb

Click here for an explanation of pseudo-MPECs

 
 Astrometry: 
     A10SuBN* C2023 02 01A^DGa]+,V1M(QS??oLqW1$[9rrOxAp]erD#+(Y/;X;HRZ=$Rtj0/W68
     A10SuBN  C2023 02 01))'2[H)g!=jXHL7d6,vQTN1q-=EwNUZ1\ml_PeL+(c*CTHY`D0nMW68
     A10SuBN  C2023 02 01u?49d1A?ERV8x;hcAME^6)[DQn^PXR#SqkF6g/G??:rZ\505:OEJW68
     A10SuBN  C2023 02 01C)U6W.aHUw$Ba%?ha#=f81@1`?[]#[89l:/RrR9wH?=6ZsmQ9,bYW68
     A10SuBN |C2023 02 03qyR9gQoY,IM;!Emnvohm_HfSY9m0slb2H)=J@CeBB3j(X2B'Ru[2807
     A10SuBN |C2023 02 034Q%xJK:]MC!D9Kd\j`$#Qv,/.Nja#%MkWRi[W)*sN?x8Uiy3lP/R807
     A10SuBN |C2023 02 039Z*Y]c,N@^qoTty4nMSF?b5ru\+4Io(,c45^L,`A;ZtO(!]O@E9A807
     A10SuBN 1C2023 02 03oi1O^e1DOyY3%@MF5atdDuGM;Gk.BF$H5iwM/bq^a+Kf%Rf:9`$7Q62
     A10SuBN 1C2023 02 03[dP'09IVqqk:HrI0CaKNfk-1G2qI,`h6gx)6Tay;/Ksnxwli*e,wQ62
     A10SuBN 1C2023 02 03K21LhG9@Q)t+jMSx?GE$DkG(V!4-Fb7r*^eKinyu8Muk%nq9OJ_PQ62
     A10SuBN 2C2023 02 05S;QAIWhen:o-Z@P(@KAG!fo^-cgWHd=o,f'N+OB!6VAg_albGli=W85
     A10SuBN 2C2023 02 05*vZr-(jrE_Xf@`qJ(r`_nMx/t$rAJa8U7r'DTqpTV(tQhk!KadfiW85
     A10SuBN 2C2023 02 05bu=fm^j.QEEILDXC:2TC,_eQ`6I!T5D1a\XFMAwLfyd2vYxP*5A6W85
     A10SuBN 2C2023 02 05O29QfOu):7?L]Fm4s4hrx!nWyy3^h/NAgI-pxj05d7L0*:)r)!q^W85
     A10SuBN |C2023 02 12J(7#pOk%WcFEf-;eRT=[L!uVtX1Ep['b^w7*oGn4dcSiaX`B*b`6807
     A10SuBN |C2023 02 12Pr5G-/F:FPpowMce7MSp11oM@0cq(xi:'5.'?Ywq,:\CAUv85aI7807
     A10SuBN |C2023 02 12VvXf9)Hk!8_('n/!M`r3!.VvcRhRmkjIA6Z+8%`*eB23Qg:l_MmG807
     A10SuBN KC2023 02 12)Ce52=(#-QEcAYH4_.JP*]\qQN0$uX-wvP:$./S?+2h?qP7u[B2=L87
     A10SuBN KC2023 02 12mcE$g@6N8g$C[\Q]F*WQpEJBO;=0]P'+mL/[Fyc9fB\G$3_JqpUgL87
     A10SuBN KC2023 02 12;Y/DuM/2W6=J=_=Y#VyE8!I%:Nv0)d%cMI8XJ1IB6fu)\R:5w,6!L87
     A10SuBN KC2023 02 172PO.`XLeui3T!8@J4V66+tL^hb5tx6`)?ICRucMOR;*S-$$AZnWeL87
     A10SuBN KC2023 02 17B*#0lm_D]EM#nqUDZ\sfQWs^[Q%AstrometryoF75Bul-A_leCkmL87
     A10SuBN KC2023 02 17F:U^Rk1wCk[$C;NC,ce'UrHog8048JRmb^8sV5HKuk@I4LfS-uUjL87
     A10SuBN KC2023 02 19Dv(.1@X=g@ZnXo0t+K:.9@NmMJs\n=YQLjK^a9YcMMBB7=CN1+gRX03
     A10SuBN KC2023 02 19Z4Y^-,%u]+?/iDOOfKgBBdJTIl`]?uh[(m0?R)(ud*x.3't9Hp[2X03
     A10SuBN KC2023 02 19Ai63Os9oo'*QN;pxyb]TpK[Dd*;yp\i,IrZbA)DLZLA*-?]c(u=RX03
     A10SuBN KC2023 02 19FRwd\l=-(`9QYMmVkjr!u%u2BW-_/-k`qNR5[ZuNe.Yc2$C#vERUX03
     A10SuBN 4C2023 02 21@dwwL\`YNGQVy@k4o?yXu2A.k1gccC]'@4SWu3_Bou8`/-Yc?UO`W88
     A10SuBN 4C2023 02 21c@%NbBk_ZrYn6imOe1Da#*Jddg*sqD\kIdSFUl'LtaTl)?6DBuIaW88
     A10SuBN %C2023 02 21_jk2a5nS92`_AS?H%9dA13o8$94yu8-fJnVr!o*b.K;MM@@7aR0OW88
     A10SuBN %C2023 02 21GHS:6R12DRnfb@hWJ*?OElegns$U@b4ny(8q5,^wL/P0NYUu6tb*W88
     A10SuBN KC2023 02 24T[bdUredacted;BLC8ACAYnV@RSF2Qvk0+@F%(P4=lxL4JIMkFH%I47
     A10SuBN KC2023 02 24;$EG1EZNvVs-b9-Au8Ul*SrsXuIBH(7'^kMrs#)ldE_rf40vn)xgI47
     A10SuBN  C2023 02 25aNA1pi9-oAEaH4KG'6F@b2ULb[@l4bSb)2M2sB-]U6rZ7SJ]sfJ(W68
     A10SuBN  C2023 02 25823XRuclick2nX*Z+pS(#K?2kGSDqkr^oP'rc:J8rK0,0'_8^e2KW68
     A10SuBN  C2023 02 25'#r4CYN[N(20!uJ%hPR9:^IAxZcN+D+#2aFF5(trn*sC.R1^*JyiW68
     A10SuBN  C2023 02 25NtAjT^r_(#ne=:TyiLmMy6\,@6sYTHx8p@N2imO]GNLNA'263h0$W68
     A10SuBN KC2023 02 26.13563710 49 50.707-49 33 53.02   ~2Q47 20.0 GXNEOCPY00
     A10SuBN KC2023 02 26.14230010 49 50.434-49 33 54.46   ~2Q47 19.2 GXNEOCPY00
     A10SuBN KC2023 02 26.14873510 49 50.165-49 33 54.66   ~2Q47 19.1 GXNEOCPY00
     A10SuBN 3C2023 02 26n*7#Rl!.*L$%7Hmf+n;Xv62XHEjXI9;Ha=Wki[JCLr69$_.6[xH9W88
     A10SuBN 3C2023 02 26!J_E\b^yWGXda:4+@auY?ZAUp@W/A'HfceKB%d;wB%_6mDWT?jsTW88
     A10SuBN KC2023 02 272(JR9YMt\m8GrTCx^u;=4+1Xb?RSm,?uVq5ix/%EGLVJt.kiu787X03
     A10SuBN KC2023 02 27VjD#Pcy,4hPfQU2y\P/,F)n7Mtqed9vT^y+!Rk6@Arw4KYdZ?d=3X03
     A10SuBN KC2023 02 27VDbMFM7`IFxI+y!v5vrlHIM\Ea!cXh?#PGI$^c'^;Pi;,@*\lP*;X03
     A10SuBN  C2023 02 281WwVR?v@9Sq`WOxtV]6a+Gi)l@3-QD*a\ZlWsF(Y#1XwAog(ur)vM28
     A10SuBN  C2023 02 28b2h(yP3w4t9qT`((,0;cAM:bB(ErTNH;jxn@1FU_9ny.v_rkH9?=M28
     A10SuBN KC2023 02 28UaET3y][pxLnFlZlG?,'3_icEaUGTtd05/Ic!*3SV'#;F$[,,HluX02
     A10SuBN KC2023 02 282k]g8k;#!Pf@y)u^O:x)q9)vN6\w\Wc'n*?`Ev;Oc5OF1gc:';CSX02
     A10SuBN KC2023 03 11TLO]1ZRBCY7MyQLuF!8\*_GqaS=*,K0[.MFB%he_%l80gWtZ9$?:I47
     A10SuBN KC2023 03 11vu!O8_5=IpvHV*hodZ-NSN+'.x+'8[mdn,yfVol,e:J(1h=rJ!HQI47
     A10SuBN "C2023 03 11/679rm`\m6(#_tcK4O=k=4d3^e[5N\K?OC3iZO\JW9/Q#4?)c6tZW88
     A10SuBN "C2023 03 11J8n.W)C`?I%nFl^Zut*,4:]7NWtlmHL;@LLJJ2isl8?^PTZJ^f8xW88
     A10SuBN KC2023 03 14$)'5#s(yFA@MGDQZgJYCd/wx4\?L4wVo23hnmBohB6`sp'wvat:JX02
     A10SuBN KC2023 03 14rm^.21vcAlu.4CV8jrZ2-Pn*/YuY+hr9T]i=$5l2$5hZNY-b9spjX02
     A10SuBN KC2023 03 14gTJP3E03(1A?U^Cj*/ntR)H1jdJc4n+i?[VEO,':MFofi:pSbj+EX02
     A10SuBN  C2023 03 17lp5WtSEi^hbsE?N2FB:Glj,PCHu(ngx)xM6DtfXH18g9%g\?4Ny%W68
     A10SuBN  C2023 03 174O6$_*F7hxd$vZSc8!tQBh0c$Ox,(W@W3V\r;\0]ZNaW/n@GonRkW68
     A10SuBN  C2023 03 17\bU`k-Fsf+QwA$l#hO]j:K_4MT)YFeBUgbL;mF1DA56D#?[@/PknW68
     A10SuBN  C2023 03 17dr#mR#3NX9;@?02V10wGuJ?WDO-jwKb?:#RB[E8UdHUQYgaVhb,lW68
     A10SuBN hC2023 03 17[=7d$'bOCbn^@Z!Er10Afa-0OB33d7:g]i5u/6Vd[(OEIp`##c4-Q62
     A10SuBN hC2023 03 17[*)[r/0PGIfw2VSwk57_vQT:*avij1a,1pl!c;A:Nwm%hereB]+YQ62
     A10SuBN hC2023 03 17v(e86%CwUfAAMM,wCxx`ns!BpH!m+`[BktXKqUZ]v!d#.a`:;T3PQ62
     A10SuBN rC2023 03 18^+forQ$lW_4#3mN^.AS0_0rG12;LA(Bqf:WqI)X],k*Z*-BK`,epQ62
     A10SuBN rC2023 03 18$2[k'a2/)]vD:GcPN!6t_J$lmO,yexplanation:WXlIaT5q7rG5Q62
     A10SuBN 1C2023 03 19gnR*y_5E`$7-.x,/d]!gD/oGu\ehFdI,S#Qm(Bjt-F)K]_9\n;QoQ62
     A10SuBN 1C2023 03 19jn,,YtSwC9PGjx)fxMa_sDe1)$mRsD!l-JK(W%p-L:+/']\hC02bQ62
     A10SuBN 1C2023 03 19Apfh92#W%1\*mm-r:yXy.9\E[%/HgP-rt!*w2cbHn/U\ZI[lHC,*Q62

Station data:
(807) Cerro Tololo Observatory, La Serena  (S30.169133 W70.805900)  Chile.
   Observer R. Holmes. 0.61-m f/6.5 astrograph + CCD.
(I47) Pierre Auger Observatory, Malargüe  (S35.495440 W69.449700)  Argentina.
    Observer M. Mašek. 0.3-m f/6.8 reflector + CCD.
(L87) Moonbase South Observatory, Hakos  (S23.236420 E16.361890)  Namibia.
   Observer G. Duszanowicz. 0.36-m f/7.7 reflector + CCD.
(M28) Lesedi Telescope-SAAO Observatory, Sutherland  (S32.379790 E20.810640)
   South Africa.
(Q62) iTelescope Observatory, Siding Spring  (S31.273286 E149.064420)
   Australia/NSW.  Observer H. Sato. 0.51-m f/6.8 astrograph + CCD + f/4.5
   focal reducer0.43-m f/6.8 astrograph + CCD + focal reducer0.43-m f/6.8
   astrograph + CCD0.10-m f/5 astrograph + CCD0.127-m f/5.6 refractor +
   CCD0.50-m f/6.8 reflector + CCD0.30-m f/9 reflector + CCD.
(W68) ATLAS Chile, Rio Hurtado  (S30.471010 W70.764980)  Chile.
(W85) Cerro Tololo-LCO A  (S30.167404 W70.804810)  Chile.  Observers T.
   Lister, S. Greenstreet, E. Gomez. Measurer T. Lister. 1.0-m f/8
   Ritchey-Chrétien + CCD.
(W88) Slooh.com Chile Observatory, La Dehesa  (S33.269126 W70.534300)  Chile.
    Observers B. Lütkenhöner, G. Gašparović, K. Dankov, N. Paul. Measurers B.
   Lütkenhöner, G. Gašparović, Y. Chen, G. Y. Gasparovic, M.
   Kumrucu-Lohmiller, N. Paul, R. W. Anderson. 0.43-m f/6.8 Corrected Dall-
   Kirkham + CCD0.35-m f/11.0 Schmidt-Cassegrain + CCD.
(X02) Telescope Live, El Sauce  (S30.470666 W70.764830)  Chile.  Observers E.
   Guido, M. Rocchetto, E. Bryssinck, M. Fulle, G. Milani, C. Nassef, G.
   Savini, A. Valvasori. Measurer E. Guido. 0.6-m f/6.5 astrograph + CCD.
(X03) Observatoire SADR, Poroto  (S30.533914 W70.796390)  Chile.  Observers
   J. L. Virlichie, P. Traverse. 0.35-m f/4.7 Newtonian reflector + CCD.
(Y00) SONEAR Observatory, Oliveira  (S20.715080 W44.784960)  Brazil.
   Observers C. Jacques, E. Pimentel, J. Barros. Measurer C. Jacques. 0.45-m
   f/2.9 astrograph + CCD.

Orbital elements:  A10SuBN
   Perihelion 2024 Nov 16.78865 +/- 0.27 TT = 18:55:39 (JD 2460631.28865)
Epoch 2023 Mar 19.0 TT = JDT 2460022.5                           AutoNEOCP
M 359.99709854 +/- 0.0035           (J2000 ecliptic)
n   0.00000476 +/- 5.88e-6          Peri.  357.44269 +/- 0.006
a3497.05851 +/- 2188                Node   301.03128 +/- 0.012
e   0.9993227 +/- 0.000528          Incl.   48.31745 +/- 0.0033
P 206801                   H 10.91  G  0.15   U  4.7
q 2.36837873 +/- 0.00102    Q 6991.74865 +/- 4493
67 of 68 observations 2023 Feb. 1-Mar. 19; mean residual 0".41
Residuals in arcseconds: 
230201 W68  1.1+  .10+    230219 X03  .14+  .21+    230228 M28  .94+  .51+    
230201 W68  .52-  .59-    230219 X03  .20-  .13-    230228 X02  .49-  .10+    
230201 W68  .65+  .02-    230219 X03  .34-  .03+    230228 X02  .26-  .29-    
230201 W68  .07-  1.3+    230219 X03  .47-  .39+    230311 I47  .65+  .01+    
230203 807  .37-  .14-    230221 W88  .67-  .18-    230311 I47( .69-  1.8+)   
230203 807  .11-  .07+    230221 W88  .49-  .41+    230311 W88  .66+  .15+    
230203 807  .04-  .02-    230221 W88  .57+  .12-    230311 W88  .52+  .06+    
230203 Q62  .08+  .13+    230221 W88  .93+  .90-    230314 X02  .21-  .30+    
230203 Q62  .09+  .02+    230224 I47  1.2+  .05-    230314 X02  .37-  .23-    
230203 Q62  .14+  .19+    230224 I47  .24-  .01-    230314 X02  .15-  .07+    
230205 W85  .15-  .28-    230225 W68  .16+  .76-    230317 W68  .19-  .26+    
230205 W85  .22-  .19-    230225 W68  .12-  .49+    230317 W68  .79-  .45-    
230205 W85  .20-  .10-    230225 W68  .04-  .27+    230317 W68  .17-  .92+    
230205 W85  .17-  .11-    230225 W68  .09+  1.1-    230317 W68  .30+  .20-    
230212 807  .26+  .15+    230226 Y00  .52-  .07+    230317 Q62  .22-  .53-    
230212 807  .15+  .22+    230226 Y00  .27-  .66-    230317 Q62  .26+  .33-    
230212 807  .14-  .11-    230226 Y00  .07-  .17-    230317 Q62  .41-  .42-    
230212 L87  .24-  .42-    230226 W88  .20+  .29+    230318 Q62  .26-  .01+    
230212 L87  .23-  .31-    230226 W88  .41-  .85+    230318 Q62  .12+  .25-    
230212 L87  .15-  .20-    230227 X03  .28-  .00     230319 Q62  .02-  .06+    
230217 L87  .32+  .13+    230227 X03  .35-  .24+    230319 Q62  .06+  .16+    
230217 L87  .14-  .04-    230227 X03  .23-  .07+    230319 Q62  .04+  .16+    
